| time (UTC) | temp C | wind direction | speed KPH | gust KPH | rain 1hr cm | rain 24hr cm | rain mn cm | humidity % | barometer mb |
| 20260502183016 | 12 | 225 | 11.3 | 14.5 | 0.00 | 0.00 | 0.00 | 50 | 1007.7 |
| 20260502182440 | 12 | 203 | 6.4 | 9.7 | 0.00 | 0.00 | 0.00 | 48 | 1007.7 |
| 20260502181833 | 13 | 235 | 4.8 | 6.4 | 0.00 | 0.00 | 0.00 | 48 | 1007.7 |
| 20260502181254 | 12 | 239 | 4.8 | 6.4 | 0.00 | 0.00 | 0.00 | 50 | 1008.1 |
| 20260502180621 | 12 | 246 | 4.8 | 9.7 | 0.00 | 0.00 | 0.00 | 54 | 1008.1 |
| 20260502164244 | 12 | 290 | 6.4 | 6.4 | 0.00 | 0.00 | 0.00 | 53 | 1008.8 |
| 20260502163631 | 11 | 216 | 11.3 | 12.9 | 0.00 | 0.00 | 0.00 | 51 | 1008.8 |
| 20260502163054 | 12 | 228 | 4.8 | 4.8 | 0.00 | 0.00 | 0.00 | 52 | 1008.8 |
| 20260502162442 | 12 | 274 | 8.0 | 11.3 | 0.00 | 0.00 | 0.00 | 55 | 1008.8 |
| 20260502161816 | 11 | 267 | 4.8 | 6.4 | 0.00 | 0.00 | 0.00 | 54 | 1008.8 |
| 20260502161221 | 12 | 222 | 9.7 | 12.9 | 0.00 | 0.00 | 0.00 | 48 | 1008.8 |
| 20260502160623 | 12 | 260 | 6.4 | 9.7 | 0.00 | 0.00 | 0.00 | 51 | 1008.8 |
| 20260502151833 | 11 | 222 | 6.4 | 6.4 | 0.00 | 0.00 | 0.00 | 57 | 1009.1 |
| 20260502151241 | 11 | 208 | 4.8 | 6.4 | 0.00 | 0.00 | 0.00 | 54 | 1008.8 |
| 20260502150650 | 11 | 239 | 9.7 | 12.9 | 0.00 | 0.00 | 0.00 | 56 | 1008.8 |
| 20260502130631 | 5 | 274 | 0.0 | 0.0 | 0.00 | 0.00 | 0.00 | 98 | 1009.4 |
| 20260502123635 | 4 | 283 | 0.0 | 0.0 | 0.00 | 0.00 | 0.00 | 99 | 1009.1 |
| 20260502122440 | 3 | 264 | 0.0 | 1.6 | 0.00 | 0.00 | 0.00 | 99 | 1009.4 |
| 20260502121222 | 4 | 242 | 0.0 | 0.0 | 0.00 | 0.00 | 0.00 | 99 | 1009.1 |
| 20260502120644 | 3 | 240 | 0.0 | 0.0 | 0.00 | 0.00 | 0.00 | 99 | 1009.1 |
| 20260502115451 | 3 | 292 | 0.0 | 0.0 | 0.00 | 0.00 | 0.00 | 99 | 1009.1 |
| 20260502114813 | 3 | 269 | 0.0 | 0.0 | 0.00 | 0.00 | 0.00 | 99 | 1009.1 |
| 20260502114232 | 3 | 247 | 0.0 | 0.0 | 0.00 | 0.00 | 0.00 | 99 | 1009.1 |
| 20260502113611 | 3 | 261 | 0.0 | 0.0 | 0.00 | 0.00 | 0.00 | 99 | 1009.1 |
| 20260502113039 | 3 | 261 | 0.0 | 0.0 | 0.00 | 0.00 | 0.00 | 99 | 1009.1 |
| 20260502112437 | 3 | 273 | 0.0 | 0.0 | 0.00 | 0.00 | 0.00 | 99 | 1009.1 |
| 20260502111828 | 3 | 253 | 0.0 | 0.0 | 0.00 | 0.00 | 0.00 | 99 | 1008.8 |
| 20260502111226 | 3 | 259 | 0.0 | 0.0 | 0.00 | 0.00 | 0.00 | 99 | 1008.8 |
| 20260502110017 | 3 | 273 | 0.0 | 0.0 | 0.00 | 0.00 | 0.00 | 99 | 1008.8 |
| 20260502105418 | 2 | 289 | 0.0 | 0.0 | 0.00 | 0.00 | 0.00 | 99 | 1008.8 |
| 20260502104829 | 2 | 268 | 0.0 | 0.0 | 0.00 | 0.00 | 0.00 | 99 | 1008.8 |
| 20260502104217 | 2 | 263 | 0.0 | 0.0 | 0.00 | 0.00 | 0.00 | 99 | 1008.8 |
| 20260502103635 | 2 | 253 | 0.0 | 0.0 | 0.00 | 0.00 | 0.00 | 99 | 1008.4 |
| 20260502103043 | 2 | 257 | 0.0 | 0.0 | 0.00 | 0.00 | 0.00 | 99 | 1008.8 |
| 20260502102419 | 2 | 263 | 0.0 | 0.0 | 0.00 | 0.00 | 0.00 | 99 | 1009.1 |
| 20260502101846 | 2 | 275 | 0.0 | 0.0 | 0.00 | 0.00 | 0.00 | 99 | 1009.1 |
| 20260502100630 | 2 | 283 | 0.0 | 0.0 | 0.00 | 0.00 | 0.00 | 99 | 1009.1 |
| 20260502091252 | 2 | 279 | 0.0 | 0.0 | 0.00 | 0.00 | 0.00 | 99 | 1009.1 |
| 20260502090624 | 2 | 275 | 0.0 | 0.0 | 0.00 | 0.00 | 0.00 | 99 | 1009.1 |
| 20260502071224 | 3 | 273 | 0.0 | 0.0 | 0.00 | 0.00 | 0.00 | 99 | 1008.8 |
| 20260502070652 | 3 | 200 | 0.0 | 0.0 | 0.00 | 0.00 | 0.00 | 99 | 1008.8 |
| 20260502070035 | 3 | 267 | 0.0 | 0.0 | 0.00 | 0.00 | 0.00 | 99 | 1008.8 |
| 20260502063651 | 3 | 280 | 0.0 | 0.0 | 0.00 | 0.00 | 0.00 | 99 | 1008.8 |
| 20260502063042 | 3 | 275 | 0.0 | 0.0 | 0.00 | 0.00 | 0.00 | 99 | 1009.1 |
| 20260502061814 | 2 | 282 | 0.0 | 0.0 | 0.00 | 0.00 | 0.00 | 99 | 1009.1 |
| 20260502061249 | 2 | 278 | 0.0 | 0.0 | 0.00 | 0.00 | 0.00 | 99 | 1009.1 |
| 20260502060622 | 2 | 341 | 0.0 | 0.0 | 0.00 | 0.00 | 0.00 | 99 | 1009.1 |
| 20260502060047 | 2 | 272 | 0.0 | 0.0 | 0.00 | 0.00 | 0.00 | 98 | 1009.1 |
| 20260502055448 | 2 | 277 | 0.0 | 0.0 | 0.00 | 0.00 | 0.00 | 98 | 1009.1 |
| 20260502054820 | 2 | 274 | 0.0 | 0.0 | 0.00 | 0.00 | 0.00 | 98 | 1009.1 |
| 20260502054251 | 2 | 274 | 0.0 | 0.0 | 0.00 | 0.00 | 0.00 | 98 | 1009.1 |
| 20260502053021 | 2 | 268 | 0.0 | 0.0 | 0.00 | 0.00 | 0.00 | 98 | 1009.4 |
| 20260502052415 | 2 | 267 | 0.0 | 0.0 | 0.00 | 0.00 | 0.00 | 98 | 1009.4 |
| 20260502051826 | 3 | 341 | 0.0 | 0.0 | 0.00 | 0.00 | 0.00 | 98 | 1009.4 |
| 20260502051220 | 2 | 259 | 0.0 | 0.0 | 0.00 | 0.00 | 0.00 | 98 | 1009.4 |
| 20260502050628 | 2 | 272 | 0.0 | 0.0 | 0.00 | 0.00 | 0.00 | 97 | 1009.4 |
| 20260502050039 | 3 | 269 | 0.0 | 0.0 | 0.00 | 0.00 | 0.00 | 97 | 1009.4 |
| 20260502045433 | 3 | 267 | 0.0 | 0.0 | 0.00 | 0.00 | 0.00 | 97 | 1009.4 |
| 20260502044838 | 3 | 341 | 0.0 | 0.0 | 0.00 | 0.00 | 0.00 | 97 | 1009.1 |
| 20260502043629 | 3 | 274 | 0.0 | 0.0 | 0.00 | 0.00 | 0.00 | 97 | 1009.4 |
| 20260502043043 | 3 | 270 | 0.0 | 0.0 | 0.00 | 0.00 | 0.00 | 97 | 1009.4 |
| 20260502042435 | 3 | 268 | 0.0 | 0.0 | 0.00 | 0.00 | 0.00 | 96 | 1009.4 |
| 20260502041810 | 3 | 272 | 0.0 | 0.0 | 0.00 | 0.00 | 0.00 | 96 | 1009.4 |
| 20260502041217 | 3 | 270 | 0.0 | 0.0 | 0.00 | 0.00 | 0.00 | 96 | 1009.4 |
| 20260502040649 | 4 | 264 | 0.0 | 0.0 | 0.00 | 0.00 | 0.00 | 96 | 1009.4 |
| 20260502040019 | 4 | 258 | 0.0 | 0.0 | 0.00 | 0.00 | 0.00 | 96 | 1009.4 |
| 20260502035442 | 4 | 266 | 0.0 | 0.0 | 0.00 | 0.00 | 0.00 | 95 | 1009.4 |
| 20260502034810 | 4 | 270 | 0.0 | 0.0 | 0.00 | 0.00 | 0.00 | 95 | 1009.4 |
| 20260502034246 | 4 | 341 | 0.0 | 0.0 | 0.00 | 0.00 | 0.00 | 95 | 1009.1 |
| 20260502033649 | 4 | 269 | 0.0 | 0.0 | 0.00 | 0.00 | 0.00 | 94 | 1009.1 |
| 20260502033012 | 5 | 256 | 0.0 | 0.0 | 0.00 | 0.00 | 0.00 | 94 | 1009.1 |
| 20260502032426 | 5 | 334 | 0.0 | 0.0 | 0.00 | 0.00 | 0.00 | 93 | 1009.1 |
| 20260502031841 | 5 | 263 | 0.0 | 0.0 | 0.00 | 0.00 | 0.00 | 93 | 1009.4 |
| 20260502031213 | 5 | 275 | 0.0 | 0.0 | 0.00 | 0.00 | 0.00 | 93 | 1009.1 |
| 20260502030616 | 5 | 261 | 0.0 | 0.0 | 0.00 | 0.00 | 0.00 | 92 | 1009.1 |
| 20260502030046 | 5 | 268 | 0.0 | 0.0 | 0.00 | 0.00 | 0.00 | 92 | 1009.1 |
| 20260502025414 | 5 | 264 | 0.0 | 0.0 | 0.00 | 0.00 | 0.00 | 92 | 1009.4 |
| 20260502024827 | 6 | 261 | 0.0 | 0.0 | 0.00 | 0.00 | 0.00 | 91 | 1009.4 |
| 20260502024219 | 6 | 268 | 0.0 | 0.0 | 0.00 | 0.00 | 0.00 | 91 | 1009.1 |
| 20260502023624 | 6 | 261 | 0.0 | 0.0 | 0.00 | 0.00 | 0.00 | 91 | 1009.4 |
| 20260502023047 | 6 | 259 | 0.0 | 0.0 | 0.00 | 0.00 | 0.00 | 91 | 1009.1 |
| 20260502022427 | 6 | 249 | 0.0 | 0.0 | 0.00 | 0.00 | 0.00 | 90 | 1009.1 |
| 20260502021812 | 6 | 251 | 0.0 | 0.0 | 0.00 | 0.00 | 0.00 | 89 | 1008.8 |
| 20260502021234 | 6 | 253 | 0.0 | 0.0 | 0.00 | 0.00 | 0.00 | 88 | 1008.8 |
| 20260502020614 | 6 | 260 | 0.0 | 0.0 | 0.00 | 0.00 | 0.00 | 87 | 1008.8 |
| 20260502020036 | 6 | 266 | 0.0 | 0.0 | 0.00 | 0.00 | 0.00 | 86 | 1008.4 |
| 20260502015431 | 6 | 264 | 0.0 | 0.0 | 0.00 | 0.00 | 0.00 | 87 | 1008.4 |
| 20260502014842 | 7 | 264 | 0.0 | 0.0 | 0.00 | 0.00 | 0.00 | 86 | 1008.4 |
| 20260502014227 | 7 | 269 | 0.0 | 0.0 | 0.00 | 0.00 | 0.00 | 85 | 1008.1 |
| 20260502013620 | 7 | 260 | 0.0 | 0.0 | 0.00 | 0.00 | 0.00 | 85 | 1008.1 |
| 20260502013036 | 7 | 258 | 0.0 | 0.0 | 0.00 | 0.00 | 0.00 | 84 | 1008.1 |
| 20260502012450 | 7 | 271 | 0.0 | 0.0 | 0.00 | 0.00 | 0.00 | 82 | 1008.1 |
| 20260502011841 | 8 | 266 | 0.0 | 0.0 | 0.00 | 0.00 | 0.00 | 81 | 1008.1 |
| 20260502011224 | 8 | 286 | 0.0 | 0.0 | 0.00 | 0.00 | 0.00 | 79 | 1007.7 |
| 20260502010625 | 9 | 316 | 1.6 | 1.6 | 0.00 | 0.00 | 0.00 | 75 | 1007.7 |
| 20260502010053 | 9 | 237 | 4.8 | 6.4 | 0.00 | 0.00 | 0.00 | 73 | 1007.7 |
| 20260502005446 | 10 | 269 | 1.6 | 1.6 | 0.00 | 0.00 | 0.00 | 75 | 1007.7 |
| 20260502004843 | 10 | 239 | 1.6 | 1.6 | 0.00 | 0.00 | 0.00 | 71 | 1007.4 |
| 20260502004227 | 10 | 248 | 1.6 | 3.2 | 0.00 | 0.00 | 0.00 | 70 | 1007.4 |
| 20260502003649 | 10 | 246 | 1.6 | 4.8 | 0.00 | 0.00 | 0.00 | 70 | 1007.1 |
| 20260502002449 | 11 | 213 | 6.4 | 11.3 | 0.00 | 0.00 | 0.00 | 68 | 1007.1 |
| 20260502001832 | 11 | 212 | 6.4 | 6.4 | 0.00 | 0.00 | 0.00 | 68 | 1007.1 |
| 20260502001246 | 11 | 224 | 9.7 | 14.5 | 0.00 | 0.00 | 0.00 | 67 | 1006.7 |
| 20260502000031 | 12 | 201 | 11.3 | 14.5 | 0.00 | 0.00 | 0.00 | 67 | 1006.7 |
| 20260501235453 | 12 | 239 | 6.4 | 9.7 | 0.00 | 0.00 | 0.00 | 70 | 1006.4 |
| 20260501234840 | 12 | 268 | 3.2 | 3.2 | 0.00 | 0.00 | 0.00 | 72 | 1006.0 |
| 20260501234253 | 12 | 245 | 3.2 | 4.8 | 0.00 | 0.00 | 0.00 | 72 | 1005.7 |
| 20260501233644 | 12 | 243 | 6.4 | 6.4 | 0.00 | 0.00 | 0.00 | 71 | 1005.7 |
| 20260501233024 | 12 | 233 | 4.8 | 4.8 | 0.00 | 0.00 | 0.00 | 69 | 1005.4 |
| 20260501232442 | 13 | 256 | 4.8 | 4.8 | 0.00 | 0.00 | 0.00 | 66 | 1005.4 |
| 20260501231817 | 12 | 264 | 8.0 | 12.9 | 0.00 | 0.00 | 0.00 | 68 | 1005.4 |
| 20260501231255 | 12 | 232 | 6.4 | 9.7 | 0.00 | 0.00 | 0.00 | 66 | 1005.7 |
| 20260501230650 | 13 | 268 | 12.9 | 14.5 | 0.00 | 0.00 | 0.00 | 67 | 1005.7 |
| 20260501230036 | 13 | 186 | 6.4 | 6.4 | 0.00 | 0.00 | 0.00 | 66 | 1005.4 |
| 20260501225415 | 13 | 266 | 3.2 | 3.2 | 0.00 | 0.00 | 0.00 | 70 | 1005.7 |
| 20260501224827 | 13 | 277 | 3.2 | 3.2 | 0.00 | 0.00 | 0.00 | 69 | 1005.4 |
| 20260501224233 | 13 | 235 | 4.8 | 4.8 | 0.00 | 0.00 | 0.00 | 70 | 1005.0 |
| 20260501223616 | 13 | 231 | 4.8 | 4.8 | 0.00 | 0.00 | 0.00 | 70 | 1005.0 |
| 20260501223053 | 13 | 277 | 6.4 | 9.7 | 0.00 | 0.00 | 0.00 | 68 | 1005.4 |
| 20260501222451 | 13 | 279 | 3.2 | 4.8 | 0.00 | 0.00 | 0.00 | 68 | 1005.0 |
| 20260501221839 | 13 | 249 | 6.4 | 6.4 | 0.00 | 0.00 | 0.00 | 69 | 1005.4 |
| 20260501221246 | 13 | 346 | 8.0 | 11.3 | 0.00 | 0.00 | 0.00 | 70 | 1005.4 |
| 20260501220645 | 13 | 250 | 6.4 | 9.7 | 0.00 | 0.00 | 0.00 | 70 | 1005.0 |
| 20260501220021 | 12 | 282 | 1.6 | 3.2 | 0.00 | 0.00 | 0.00 | 70 | 1005.0 |
| 20260501215415 | 12 | 306 | 3.2 | 3.2 | 0.00 | 0.00 | 0.00 | 70 | 1005.0 |
| 20260501214238 | 12 | 264 | 3.2 | 3.2 | 0.00 | 0.00 | 0.00 | 71 | 1005.0 |
| 20260501213041 | 12 | 283 | 3.2 | 3.2 | 0.00 | 0.00 | 0.00 | 73 | 1005.0 |
| 20260501211829 | 12 | 280 | 3.2 | 3.2 | 0.00 | 0.00 | 0.00 | 73 | 1005.0 |
| 20260501211210 | 12 | 254 | 3.2 | 4.8 | 0.00 | 0.00 | 0.00 | 73 | 1005.0 |
| 20260501210617 | 12 | 259 | 4.8 | 4.8 | 0.00 | 0.00 | 0.00 | 72 | 1004.7 |
| 20260501210030 | 12 | 231 | 4.8 | 6.4 | 0.00 | 0.00 | 0.00 | 71 | 1004.7 |
| 20260501205421 | 12 | 289 | 3.2 | 4.8 | 0.00 | 0.00 | 0.00 | 69 | 1005.0 |
| 20260501204849 | 12 | 283 | 6.4 | 6.4 | 0.00 | 0.00 | 0.00 | 73 | 1004.7 |
| 20260501203622 | 13 | 288 | 3.2 | 4.8 | 0.00 | 0.00 | 0.00 | 71 | 1004.7 |
| 20260501202444 | 13 | 271 | 9.7 | 12.9 | 0.00 | 0.00 | 0.00 | 72 | 1005.0 |
| 20260501201809 | 13 | 29 | 8.0 | 11.3 | 0.00 | 0.00 | 0.00 | 72 | 1005.0 |
| 20260501201239 | 13 | 239 | 8.0 | 11.3 | 0.00 | 0.00 | 0.00 | 71 | 1004.7 |
| 20260501200048 | 14 | 245 | 11.3 | 12.9 | 0.00 | 0.00 | 0.00 | 69 | 1004.4 |
| 20260501194853 | 15 | 347 | 9.7 | 12.9 | 0.00 | 0.00 | 0.00 | 67 | 1004.4 |
| 20260501194230 | 15 | 228 | 8.0 | 11.3 | 0.00 | 0.00 | 0.00 | 69 | 1004.0 |
| 20260501193623 | 14 | 217 | 6.4 | 9.7 | 0.00 | 0.00 | 0.00 | 67 | 1004.0 |
| 20260501193039 | 15 | 250 | 4.8 | 6.4 | 0.00 | 0.00 | 0.00 | 66 | 1004.0 |
| 20260501192423 | 15 | 270 | 6.4 | 9.7 | 0.00 | 0.00 | 0.00 | 65 | 1004.4 |
| 20260501191236 | 15 | 247 | 6.4 | 6.4 | 0.00 | 0.00 | 0.00 | 63 | 1004.0 |
| 20260501190645 | 15 | 260 | 8.0 | 9.7 | 0.00 | 0.00 | 0.00 | 66 | 1004.0 |
| 20260501190012 | 15 | 266 | 6.4 | 11.3 | 0.00 | 0.00 | 0.00 | 62 | 1004.4 |
| 20260501185428 | 15 | 301 | 4.8 | 4.8 | 0.00 | 0.00 | 0.00 | 61 | 1004.0 |
| 20260501184841 | 16 | 335 | 3.2 | 3.2 | 0.00 | 0.00 | 0.00 | 57 | 1004.0 |
| 20260501184223 | 16 | 212 | 6.4 | 9.7 | 0.00 | 0.00 | 0.00 | 56 | 1003.7 |
| 20260501183648 | 16 | 291 | 6.4 | 9.7 | 0.00 | 0.00 | 0.00 | 57 | 1003.7 |